Regional Weather Roundup
Issued by NWS

Home | Current Version | Previous Version | Text Only | Print | Product List | Glossary On
Versions: 1 2 3 4 5 6 7 8 9 10 11 12 13 14 15 16 17 18 19 20 21 22 23 24 25 26 27 28 29 30 31 32 33 34 35 36 37 38 39 40 41 42 43 44 45 46 47 48 49 50
045
ASUS44 KFWD 300015
RWRTX
NORTH TEXAS HOURLY WEATHER ROUNDUP
NATIONAL WEATHER SERVICE FORT WORTH TX
700 PM CDT SAT APR 29 2017

NOTE: "FAIR" INDICATES FEW OR NO CLOUDS BELOW 12,000 FEET WITH NO
SIGNIFICANT WEATHER AND/OR OBSTRUCTIONS TO VISIBILITY.

TXZ118-119-300100-
DALLAS/FORT WORTH METROPLEX

CITY           SKY/WX    TMP DP  RH WIND       PRES   REMARKS
DFW AIRPORT    CLOUDY    61  53  75 NW28G33   29.60R
6HR MIN TEMP:  61; 6HR MAX TEMP:  91;

DALLAS LOVE    LGT RAIN  63  52  67 NW20G31   29.62R
6HR MIN TEMP:  63; 6HR MAX TEMP:  90; 6HR PCP: TRACE;

FTW MEACHAM    CLOUDY    59  52  77 NW15G23   29.65R
6HR MIN TEMP:  58; 6HR MAX TEMP:  89;

DAL-EXECUTIVE  CLOUDY    61  54  77 NW23G33   29.61R
6HR MIN TEMP:  62; 6HR MAX TEMP:  88;

FTW-ALLIANCE   CLOUDY    57  50  77 NW15G25   29.64R
6HR MIN TEMP:  57; 6HR MAX TEMP:  87; 6HR PCP: TRACE;

FTW-NAS-JRB    CLOUDY    59  51  75 NW20G29   29.66R
6HR MIN TEMP:  59; 6HR MAX TEMP:  86; 6HR PCP: TRACE;

FTW-SPINKS     CLOUDY    59  50  72 NW20G32   29.65R
ARLINGTON      CLOUDY    60  51  72 NW22G31   29.61R
6HR MIN TEMP:  60; 6HR MAX TEMP:  89;

GRAND PRAIRIE  SUNNY     61  50  67 W14G28    29.63R
ADDISON        PTSUNNY   63  52  67 NW13G31   29.63R
MESQUITE       TSTM      66  57  72 W22G28    29.57R
LANCASTER      CLOUDY    63  54  72 NW21      29.61R
6HR MIN TEMP:  63; 6HR MAX TEMP:  89;

$$

TXZ091>094-102>105-117-120-121-131>134-300100-
NORTH CENTRAL TEXAS

CITY           SKY/WX    TMP DP  RH WIND       PRES   REMARKS
SHRMAN/DENISON CLOUDY    60  56  84 W18       29.65R THUNDER
6HR MIN TEMP:  60; 6HR MAX TEMP:  86;

GAINESVILLE    CLOUDY    54  50  86 NW20G26   29.66R
6HR MIN TEMP:  54; 6HR MAX TEMP:  82;

BOWIE          CLOUDY    53  52  99 NW17G23   29.67S
6HR MIN TEMP:  53; 6HR MAX TEMP:  68; 6HR PCP:  0.06;

BRIDGEPORT     CLOUDY    54  49  83 NW14G28   29.69R
6HR MIN TEMP:  54; 6HR MAX TEMP:  67;

DECATUR        CLOUDY    54  49  85 W15G26    29.66R
6HR MIN TEMP:  54; 6HR MAX TEMP:  71;

DENTON         CLOUDY    57  52  83 W17G28    29.63R
6HR MIN TEMP:  57; 6HR MAX TEMP:  84;

MCKINNEY       CLOUDY    62  55  77 W22       29.61R
6HR MIN TEMP:  63; 6HR MAX TEMP:  88; 6HR PCP: TRACE;

BONHAM         TSTM      68  64  88 S13       29.55F FOG
GREENVILLE     TSTM      73  68  83 S9        29.59R
ROCKWALL       CLOUDY    68  60  76 NW15G23   29.60R
6HR MIN TEMP:  68; 6HR MAX TEMP:  90; 6HR PCP:  0.06;

TERRELL        TSTM      69  63  81 W20G33    29.55R
6HR MIN TEMP:  70; 6HR MAX TEMP:  89; 6HR PCP:  1.17;

WAXAHACHIE     CLOUDY    64  55  71 W24       29.60R
6HR MIN TEMP:  64; 6HR MAX TEMP:  89;

CLEBURNE       CLOUDY    57  52  82 NW23G33   29.65R
GRANBURY       CLOUDY    59  49  69 NW24G32   29.67R
6HR MIN TEMP:  58; 6HR MAX TEMP:  83;

$$

TXZ083>090-098>101-113>116-127>130-139>142-154-155-300100-
WESTERN NORTH TEXAS

CITY           SKY/WX    TMP DP  RH WIND       PRES   REMARKS
WICHITA FALLS  CLOUDY    52  46  80 NW23G29   29.70S
6HR MIN TEMP:  51; 6HR MAX TEMP:  53; 6HR PCP:  0.03;

VERNON         CLOUDY    51  43  72 NW18G24   29.76S
6HR MIN TEMP:  44; 6HR MAX TEMP:  94;

ABILENE        CLOUDY    55  42  61 NW20      29.78S
6HR MIN TEMP:  52; 6HR MAX TEMP:  56;

ABILENE-DYESS  MOSUNNY   57  42  58 NW13      29.77S
6HR MIN TEMP:  54; 6HR MAX TEMP:  59;

GRAHAM         CLOUDY    54  48  80 W21G29    29.71R
6HR MIN TEMP:  53; 6HR MAX TEMP:  55;

BRECKENRIDGE   CLOUDY    56  45  65 NW18G29   29.76R
6HR MIN TEMP:  54; 6HR MAX TEMP:  57;

CISCO          PTSUNNY   55  46  71 NW20G28   29.75R
RANGER         CLOUDY    54  47  77 NW18G29   29.72R
6HR MIN TEMP:  53; 6HR MAX TEMP:  86;

MINERAL WELLS  CLOUDY    55  47  74 NW23G31   29.66S
6HR MIN TEMP:  54; 6HR MAX TEMP:  66; 6HR PCP: TRACE;

STEPHENVILLE   CLOUDY    56  47  71 NW16G29   29.70S
6HR MIN TEMP:  56; 6HR MAX TEMP:  71;

COMANCHE       CLOUDY    56  48  72 NW14G25   29.72S
6HR MIN TEMP:  56; 6HR MAX TEMP:  64;

BROWNWOOD      CLOUDY    57  46  67 NW13G23   29.75R
COLEMAN        CLOUDY    59  44  56 NW17      29.76S
6HR MIN TEMP:  58; 6HR MAX TEMP:  63;

$$

TXZ143>147-156>162-174-175-300100-
CENTRAL TEXAS

CITY           SKY/WX    TMP DP  RH WIND       PRES   REMARKS
WACO           CLOUDY    65  54  67 NW16G28   29.61R
6HR MIN TEMP:  65; 6HR MAX TEMP:  90; 6HR PCP: TRACE;

WACO-TSTC      CLOUDY    64  55  72 SW25G32   29.59R
WACO-MCGREGOR  CLOUDY    64  55  72 NW14G25   29.62R
6HR MIN TEMP:  64; 6HR MAX TEMP:  90; 6HR PCP:  0.02;

HILLSBORO      CLOUDY    63  54  74 NW25G36   29.62R
6HR MIN TEMP:  63; 6HR MAX TEMP:  89;

CORSICANA      TSTM      65  60  84 NW21G30   29.59R
6HR MIN TEMP:  73; 6HR MAX TEMP:  91; 6HR PCP: TRACE;

MEXIA          CLOUDY    81  73  77 S17G32    29.51R THUNDER
6HR MIN TEMP:  81; 6HR MAX TEMP:  89;

HEARNE         CLOUDY    82  75  79 SE17G24   29.54R
6HR MIN TEMP:  82; 6HR MAX TEMP:  90;

CAMERON        PTSUNNY   83  74  73 S8G17     29.52R HAZE    HX  90
6HR MIN TEMP:  83; 6HR MAX TEMP:  91;

TEMPLE         CLOUDY    64  58  80 NW17G30   29.61R THUNDER
6HR MIN TEMP:  64; 6HR MAX TEMP:  89;

KILLEEN        LGT RAIN  64  52  63 NW25G36   29.63R
6HR MIN TEMP:  64; 6HR MAX TEMP:  88; 6HR PCP: TRACE;

KILLEEN-SKYLRK CLOUDY    66  54  65 NW16G23   29.63R
6HR MIN TEMP:  66; 6HR MAX TEMP:  90; 6HR PCP: TRACE;

FORT HOOD      CLOUDY    64  53  65 NW23G31   29.60R
6HR MIN TEMP:  64; 6HR MAX TEMP:  89;

GATESVILLE     PTSUNNY   63  52  67 NW15G28   29.68R
HAMILTON       MOSUNNY   60  48  65 NW28G37   29.69R
6HR MIN TEMP:  60; 6HR MAX TEMP:  87;

LAMPASAS       MOSUNNY   63  52  69 NW18G25   29.68R
6HR MIN TEMP:  63; 6HR MAX TEMP:  88;

$$

TXZ095>097-106>112-122>126-135>138-148>153-164>167-300100-
EAST TEXAS

CITY           SKY/WX    TMP DP  RH WIND       PRES   REMARKS
PARIS          CLOUDY    73  70  88 S18G31    29.57R THUNDER
6HR MIN TEMP:  73; 6HR MAX TEMP:  84;

SULPHUR SPRNGS CLOUDY    74  73  97 SE10      29.60F THUNDER
6HR MIN TEMP:  74; 6HR MAX TEMP:  85; 6HR PCP:  0.17;

MOUNT PLEASANT CLOUDY    72  68  87 E10       29.60S
6HR MIN TEMP:  72; 6HR MAX TEMP:  82;

GILMER         CLOUDY    72  70  94 E6        29.59R
6HR MIN TEMP:  72; 6HR MAX TEMP:  80; 6HR PCP:  0.03;

MINEOLA        TSTM      73  72  94 E5        29.55F FOG
TYLER          CLOUDY    76  74  93 SE12      29.55S
6HR MIN TEMP:  75; 6HR MAX TEMP:  82; 6HR PCP:  0.03;

LONGVIEW       TSTM      75  74  96 SE20G26   29.57R FOG
6HR MIN TEMP:  74; 6HR MAX TEMP:  79; 6HR PCP:  0.32;

MARSHALL       CLOUDY    75  71  86 S14G25    29.63F
6HR MIN TEMP:  73; 6HR MAX TEMP:  78;

ATHENS         CLOUDY    79  73  83 S20G30    29.51S
PALESTINE      LGT RAIN  80  75  86 SE14G21   29.56F
JACKSONVILLE   CLOUDY    76  76  99 S17G25    29.60S
HENDERSON      CLOUDY   N/A N/A N/A SE10      29.61R
                                      6HR PCP:  0.61;

CENTER         LGT RAIN  78  77  95 SE10G21   29.63F
6HR MIN TEMP:  74; 6HR MAX TEMP:  80;

NACOGDOCHES    CLOUDY    75  73  94 S9        29.59F
6HR MIN TEMP:  72; 6HR MAX TEMP:  75; 6HR PCP:  0.16;

LUFKIN         CLOUDY    76  75  97 S12       29.61R
6HR MIN TEMP:  76; 6HR MAX TEMP:  80; 6HR PCP:  0.01;

$$

SUPPLEMENTAL OBSERVATIONS (CENTRAL)

CITY           SKY/WX    TMP DP  RH WIND       PRES   REMARKS
DENISON DAM      N/A     63  57  82 W17         N/A
PAT MAYSE LAKE   N/A     75  73  94 SE24        N/A
GREENVILLE       N/A     75  72  88 S9          N/A
CEDAR HILL       N/A     61  52  72 NW9G18      N/A
A



USA.gov is the U.S. government's official web portal to all federal, state and local government web resources and services.